{"data":{"norad_id":67678,"epoch":"2026-05-25T03:27:43.302816Z","epoch_age_seconds":55788,"freshness":"FRESH","line1":"1 67678U 26023E   26145.14425119  .00009777  00000+0  39494-3 0  9993","line2":"2 67678  96.6221 209.2382 0017533 209.2847 150.7412 15.24784572 16494","mean_motion":15.24784572,"eccentricity":0.0017533,"inclination_deg":96.6221,"raan_deg":209.2382,"arg_perigee_deg":209.2847,"mean_anomaly_deg":150.7412,"bstar":0.00039494,"rev_number":1649,"period_min":94.439570444447,"perigee_km":479.38798273384,"apogee_km":503.47681478754,"semimajor_km":6869.5693987607,"source":"CELESTRAK","updated_at":"2026-05-25T13:38:07.184091Z"}}